HAVELSAT (42700 NORAD) Tracking and Keplerian Element Data

This shows tracking and keplerian element data for the satellite.

Feedback or suggestion? Click here.




ElementValue
Catalog42700
NameHAVELSAT
Epoch Orbit8599
Epoch Day320.19069554
Epoch Year2018
RAAN291.6535
Inclination51.6274
Eccentricity0.0005576
Argument of Perigee96.5989
Mean Anonmoly263.5649
Mean Motion15.83404903
Decay Rate0.00066459
L11 42700U 98067LH 18320.19069554 .00066459 00000-0 29933-3 0 9995
L22 42700 51.6274 291.6535 0005576 96.5989 263.5649 15.83404903 85993

Live tracking and technical data element details for HAVELSAT (NORAD 42700). HAVELSAT can be tracked NOW for your location showing map with azimuth and elevation plus other details from your city location.

Track the satellite on the map from your city or location and see movement details for azimuth, elevation, latitude, longitude, range, height, and movement on the map or in text.







IsCatalogInMostPopularTable: catalog: 42700, numindb: 147
Update: records affected: 1



GetName: 42700 HAVELSAT

Hit Count: updated at: Fri, 16 Nov 2018 12:17:22 GMT